Regional Weather Roundup
Issued by NWS

Home | Current Version | Previous Version | Text Only | Print | Product List | Glossary On
Versions: 1 2 3 4 5 6 7 8 9 10 11 12 13 14 15 16 17 18 19 20 21 22 23 24 25 26 27 28 29 30 31 32 33 34 35 36 37 38 39 40 41 42 43 44 45 46 47 48 49 50
219
ASUS43 KDMX 311608
RWRIA

WEATHER ROUNDUP FOR IOWA
NATIONAL WEATHER SERVICE DES MOINES IA
1100 AM CDT TUE MAY 31 2016

NOTE: "FAIR" INDICATES FEW OR NO CLOUDS BELOW 12,000 FEET WITH NO
SIGNIFICANT WEATHER AND/OR OBSTRUCTIONS TO VISIBILITY.

* - THESE STATIONS ARE NOT NWS STATIONS...THUS NOT UNDER NWS
QUALITY CONTROL.  THEY ALSO DO NOT REPORT WEATHER SUCH
AS PRECIPITATION OR FOG.

IAZ001>003-012>014-020>022-031>034-043>046-311700-
   NORTHWEST IOWA

CITY           SKY/WX    TMP DP  RH WIND       PRES   REMARKS
CARROLL *      CLOUDY    73  61  64 W7        29.92R
CHEROKEE *     LGT RAIN  63  63 100 W7        29.95R
DENISON *      CLOUDY    64  61  88 NW13      29.93R
LE MARS *      PTSUNNY   64  57  77 W8G15     29.96R
ORANGE CITY *  PTSUNNY   63  57  82 W6        29.95S
SHELDON *      PTSUNNY   63  57  82 W8        29.93R
SIOUX CITY     CLOUDY    66  58  75 NW12      29.96R
SPENCER        LGT RAIN  61  58  90 W13       29.93R
STORM LAKE *   LGT RAIN  63  61  94 W10       29.95R
$$

IAZ055>058-069>071-079>083-090>094-311700-
   SOUTHWEST IOWA

CITY           SKY/WX    TMP DP  RH WIND       PRES   REMARKS
ATLANTIC *     CLOUDY    70  64  83 SW5       29.93S
AUDUBON *        N/A     72  64  78 SW5       29.93S
CLARINDA *       N/A     72  66  83 MISG      29.94S
COUNCIL BLFS * SUNNY     68  63  83 NW13G21   29.94R
CRESTON *      PTSUNNY   72  63  73 S15       29.95S
HARLAN  *      PTSUNNY   70  61  73 NW15      29.96R
LAMONI         CLOUDY    73  61  65 S13       29.94S
RED OAK *      CLOUDY    70  64  83 SW5       29.93S
SHENANDOAH *   PTSUNNY   72  64  78 CALM      29.94R
$$

IAZ047>049-059>061-072>074-084-311700-
   CENTRAL IOWA

CITY           SKY/WX    TMP DP  RH WIND       PRES   REMARKS
AMES           PTSUNNY   76  65  68 SW13      29.91S
ANKENY *       SUNNY     75  63  64 S10       29.92S
BOONE *        PTSUNNY   73  64  73 SW13      29.91S
CHARITON *     SUNNY     75  61  60 S13       29.93F
DES MOINES     CLOUDY    76  61  59 S13       29.92S
GRINNELL*      CLOUDY    72  59  64 S10       29.94F
KNOXVILLE *    MOSUNNY   75  59  57 S12       29.92F
MARSHALLTOWN   MOSUNNY   76  62  62 S12       29.91F
NEWTON *       CLOUDY    73  63  68 S10       29.92F
PERRY *        PTSUNNY   73  66  78 S12       29.92S
$$

IAZ004>006-015-016-023>025-035-036-311700-
   NORTH CENTRAL IOWA

CITY           SKY/WX    TMP DP  RH WIND       PRES   REMARKS
ALGONA *       CLOUDY    66  63  88 W10       29.91S
CLARION *      MOSUNNY   73  66  78 SE9       29.90S
ESTHERVILLE    CLOUDY    64  61  90 W10       29.91R
FORT DODGE *   CLOUDY    75  63  64 SW6       29.92R
MASON CITY     PTSUNNY   73  66  78 S9        29.91F
FOREST CITY *  PTSUNNY   72  64  78 SW9       29.90S
WEBSTER CITY * PTSUNNY   73  66  78 S13       29.89R
IOWA FALLS *   PTSUNNY   75  66  73 S9        29.93S
$$

IAZ007>011-017>019-026>030-037>042-050>054-066-311700-
   NORTHEAST IOWA

CITY           SKY/WX    TMP DP  RH WIND       PRES   REMARKS
CEDAR RAPIDS   SUNNY     76  64  66 S12       29.93S
CHARLES CITY * SUNNY     73  66  78 S10G16    29.92F
CLINTON *      CLOUDY    66  64  94 NE9       29.95F
DECORAH *      MOSUNNY   73  63  68 S9        29.92S
DUBUQUE        CLOUDY    73  67  81 S9        29.96F
MONTICELLO *   SUNNY     77  61  57 VRB5      29.92F
OELWEIN *      SUNNY     75  64  69 S8G15     29.94S
WATERLOO       MOSUNNY   76  62  62 S8        29.91S
$$

IAZ064-065-067-068-078-311700-
   EAST CENTRAL IOWA

CITY           SKY/WX    TMP DP  RH WIND       PRES   REMARKS
DAVENPORT      CLOUDY    76  60  57 CALM      29.96F
IOWA CITY      SUNNY     75  64  68 SE8       29.95F
MT. PLEASANT * CLOUDY    79  61  53 W5        29.96S HX  80
MUSCATINE *    SUNNY     77  61  57 S6        29.95S
QUAD CITIES    CLOUDY    76  63  64 VRB3      29.95F
$$

IAZ062-063-075>077-085>089-095>099-311700-
   SOUTHEAST IOWA

CITY           SKY/WX    TMP DP  RH WIND       PRES   REMARKS
BURLINGTON     SUNNY     78  61  55 CALM      29.96F HX  80
FAIRFIELD *      N/A    N/A N/A N/A MISG        N/A
FORT MADISON * SUNNY     77  61  57 W3        29.97S
KEOKUK *       PTSUNNY   77  63  61 CALM      29.96S
OSKALOOSA *    PTSUNNY   73  59  60 S8        29.96S
OTTUMWA        CLOUDY    73  61  65 VRB3      29.94F
WASHINGTON *   PTSUNNY   75 -35   1 SW7       29.97S
$$

ABBREVIATIONS USED IN REMARKS
   TC - TEMPERATURES IN CELSIUS
  WCI - WIND CHILL INDEX
   HX - HEAT INDEX
  VSB - VISIBILITY
$$





USA.gov is the U.S. government's official web portal to all federal, state and local government web resources and services.